Location: Banksville Park
(38.5557°N, 75.1182°W)
Time: 10:26:20
(UTC+00:00)

SAR-Lupe-1 - Visible Passes

Search period start: 17 January 2021 00:00
Search period end: 27 January 2021 00:00
Orbit: 480 x 485 km, 98.2° (Epoch: 26 November)

Date Brightness Start Highest point End Pass type
(mag) Time Alt. Az. Time Alt. Az. Time Alt. Az.
17 Jan 5.9 10:06:29 10° SE 10:09:37 29° ENE 10:11:55 15° NNE visible
17 Jan 5.9 11:40:57 10° SW 11:42:59 15° W 11:45:02 10° WNW visible
17 Jan 4.6 23:07:31 11° NNE 23:10:38 37° E 23:13:57 10° SSE visible
18 Jan 7.2 00:42:05 10° NW 00:43:34 12° WNW 00:45:02 10° W visible
18 Jan 7.0 09:42:42 10° ESE 09:44:46 15° ENE 09:46:42 10° NNE visible
18 Jan 4.9 11:14:36 10° SSW 11:17:48 30° W 11:21:00 10° NW visible
18 Jan 5.6 22:42:59 10° NE 22:45:27 18° E 22:47:55 10° SE visible
19 Jan 6.3 00:16:23 13° NNW 00:18:44 24° WNW 00:21:39 10° SW visible
19 Jan 3.9 10:49:08 10° S 10:52:41 70° WSW 10:55:49 13° NNW visible
19 Jan 4.8 23:50:57 15° N 23:53:47 52° WNW 23:57:15 10° SSW visible
20 Jan 4.9 10:24:13 10° SSE 10:27:40 49° ENE 10:30:37 14° N visible
20 Jan 3.9 23:25:30 12° NNE 23:28:46 66° ESE 23:32:18 10° S visible
21 Jan 6.4 09:59:52 10° ESE 10:02:43 23° ENE 10:05:25 11° NNE visible
21 Jan 5.6 11:33:25 10° SW 11:35:59 19° W 11:38:34 10° NW visible
21 Jan 5.0 23:00:30 10° NE 23:03:38 28° E 23:06:46 10° SSE visible
22 Jan 7.0 00:34:32 10° NNW 00:36:42 15° WNW 00:38:51 10° WSW visible
22 Jan 7.2 09:36:36 10° E 09:37:53 12° ENE 09:39:10 10° NE visible
22 Jan 4.5 11:07:26 10° S 11:10:48 40° W 11:14:12 10° NNW visible
23 Jan 5.9 00:08:53 11° N 00:11:49 31° WNW 00:14:59 10° SW visible
23 Jan 4.0 10:42:09 10° SSE 10:45:43 87° ENE 10:49:19 10° NNW visible
23 Jan 4.2 23:43:23 11° N 23:46:50 71° WNW 23:50:22 10° SSW visible
24 Jan 5.5 10:17:24 10° SE 10:20:43 37° ENE 10:24:03 10° N visible
24 Jan 4.2 23:18:17 10° NNE 23:21:46 48° E 23:25:13 10° S visible
25 Jan 6.8 09:53:18 10° ESE 09:55:48 18° ENE 09:58:19 10° NNE visible
25 Jan 5.2 11:26:01 10° SSW 11:28:57 24° W 11:31:54 10° NW visible
25 Jan 5.3 22:53:46 10° NE 22:56:36 22° E 22:59:26 10° SSE visible
26 Jan 6.7 00:27:09 10° NNW 00:29:46 19° WNW 00:32:23 10° WSW visible
26 Jan 4.1 11:00:18 10° S 11:03:47 53° W 11:07:18 10° NNW visible
